Date,TemperatureHighF,TemperatureAvgF,TemperatureLowF,DewpointHighF,DewpointAvgF,DewpointLowF,HumidityHigh,HumidityAvg,HumidityLow,PressureMaxIn,PressureMinIn,WindSpeedMaxMPH,WindSpeedAvgMPH,GustSpeedMaxMPH,PrecipitationSumIn
2012-1-1,30,25,15,28,22,10,97,89,78,29.96,29.60,23,3,24,0.00
2012-1-2,17,12,2,11,7,-2,86,80,68,30.40,29.96,17,3,17,0.00
2012-1-3,18,8,-8,8,0,-12,88,71,45,30.39,29.89,10,1,10,0.00
2012-1-4,28,20,13,21,16,8,92,82,74,29.98,29.86,12,1,12,0.00
2012-1-5,40,29,14,32,24,12,94,82,67,29.92,29.45,10,1,11,0.10
2012-1-6,45,38,33,32,29,26,84,71,51,29.60,29.45,16,2,16,0.10
2012-1-7,34,26,16,29,20,14,90,78,67,30.14,29.59,15,2,15,0.00
2012-1-8,34,26,19,24,21,16,93,81,57,30.22,30.03,10,1,10,0.00
2012-1-9,42,33,24,28,26,21,91,76,58,30.03,29.69,16,2,16,0.00
2012-1-10,45,31,14,33,26,12,95,82,61,29.91,29.62,12,1,12,0.00
2012-1-11,45,34,27,35,30,25,95,87,66,29.62,29.48,8,0,8,0.00
2012-1-12,27,18,13,25,15,10,94,87,80,29.60,29.50,12,2,12,0.00
2012-1-13,16,13,8,12,8,2,87,80,72,29.98,29.60,10,1,10,0.00
2012-1-14,12,8,5,6,4,1,88,80,73,30.16,29.98,4,0,4,0.00
2012-1-15,26,18,8,22,15,5,89,85,79,30.19,29.83,13,2,13,0.00
2012-1-16,32,27,24,27,23,20,92,86,80,29.84,29.69,9,1,9,0.00
2012-1-17,24,16,8,20,12,3,89,82,73,30.14,29.78,15,2,15,0.00
2012-1-18,18,8,-10,12,0,-13,89,73,52,30.15,29.58,16,2,16,0.00
2012-1-19,14,-6,-14,12,-14,-20,89,68,51,30.16,29.61,17,3,17,0.00
2012-1-20,5,-6,-22,-4,-14,-26,84,70,47,30.24,30.16,6,0,6,0.00
2012-1-21,19,2,-18,9,-6,-22,87,70,45,30.29,30.03,10,1,10,0.00
2012-1-22,27,23,15,24,20,10,96,88,76,30.03,29.42,13,3,13,0.00
2012-1-23,31,26,20,28,24,18,96,93,88,29.64,29.26,4,0,4,0.00
2012-1-24,25,18,8,18,14,5,92,86,75,30.21,29.64,9,0,9,0.00
2012-1-25,33,23,8,28,20,5,93,88,81,30.25,29.87,8,1,8,0.00
2012-1-26,31,28,26,29,26,23,95,91,84,29.87,29.52,11,2,12,0.00
2012-1-27,37,28,16,28,20,14,94,76,41,29.71,29.55,12,2,12,0.01
2012-1-28,27,19,15,24,15,12,91,84,74,29.81,29.64,22,4,22,0.00
2012-1-29,20,14,-2,12,6,-6,88,72,55,30.06,29.80,13,2,13,0.00
2012-1-30,30,17,-3,22,12,-7,91,83,70,30.04,29.68,10,1,10,0.00
2012-1-31,42,33,23,33,28,20,94,82,69,29.73,29.50,14,2,14,0.19
2012-2-1,36,30,25,30,27,24,96,86,75,30.01,29.73,15,1,15,0.01
2012-2-2,31,29,26,29,27,24,97,94,90,30.31,30.01,7,1,7,0.00
2012-2-3,39,30,16,29,26,14,94,85,63,30.41,30.30,3,0,5,0.01
2012-2-4,45,26,7,27,18,4,94,74,40,30.31,30.12,12,1,12,0.00
2012-2-5,40,30,25,27,24,22,90,79,56,30.21,29.99,10,1,11,0.00
2012-2-6,34,28,22,28,24,21,95,88,79,30.19,29.92,10,2,10,0.00
2012-2-7,27,18,2,22,10,-1,87,73,47,30.40,30.19,7,1,10,0.00
2012-2-8,32,14,2,3,-3,-14,88,54,14,30.35,30.10,10,2,13,0.00
2012-2-9,34,23,12,22,10,4,88,58,32,30.09,29.79,15,2,15,0.00
2012-2-10,24,13,3,22,8,-3,92,78,53,30.22,29.78,14,2,14,0.00
2012-2-11,16,8,0,1,-2,-6,81,65,46,30.32,30.19,17,4,17,0.00
2012-2-12,33,15,4,4,-2,-6,64,48,25,30.22,30.00,14,3,14,0.00
2012-2-13,30,19,-3,22,8,-7,92,64,35,30.00,29.69,8,1,9,0.00
2012-2-14,30,27,23,25,23,21,94,87,78,29.77,29.65,8,1,8,0.00
2012-2-15,39,31,28,31,27,24,93,86,70,29.88,29.76,8,1,8,0.03
2012-2-16,35,31,26,29,24,19,93,75,54,29.91,29.83,16,3,16,0.00
2012-2-17,33,26,20,29,22,16,94,84,69,29.96,29.87,8,0,8,0.00
2012-2-18,32,22,10,19,15,6,91,74,47,30.12,29.96,10,1,10,0.02
2012-2-19,39,19,-1,20,10,-4,90,71,39,30.12,30.04,9,1,10,0.00
2012-2-20,40,24,4,24,14,1,91,67,33,30.13,29.75,11,2,11,0.01
2012-2-21,33,31,28,31,28,24,94,88,78,29.75,29.29,18,3,18,0.00
2012-2-22,30,28,25,25,22,19,87,79,69,29.32,29.25,16,3,16,0.00
2012-2-23,34,26,18,22,19,15,89,75,57,29.56,29.32,6,1,6,0.04
2012-2-24,30,24,17,24,20,14,92,85,68,29.78,29.52,13,2,13,0.00
2012-2-25,29,20,14,16,13,10,88,76,52,30.15,29.78,11,2,12,0.00
2012-2-26,35,26,12,30,20,8,90,77,63,30.15,29.68,20,4,20,0.00
2012-2-27,31,24,11,24,18,8,89,75,54,30.33,29.74,20,3,20,0.00
2012-2-28,29,23,11,27,20,8,96,88,80,30.32,29.83,9,1,9,0.00
2012-2-29,32,29,26,31,28,25,97,97,95,29.83,29.27,10,2,13,0.00
2012-3-1,30,28,25,28,27,24,97,94,90,29.69,29.48,4,0,4,0.00
2012-3-2,33,30,27,31,28,26,97,94,88,29.68,29.33,5,0,5,0.03
2012-3-3,29,25,15,28,21,11,96,86,74,29.71,29.31,10,1,10,0.00
2012-3-4,24,15,3,14,10,0,91,81,62,29.99,29.71,7,0,7,0.00
2012-3-5,34,19,0,22,14,-3,91,80,53,30.16,29.98,11,2,11,0.01
2012-3-6,49,34,21,39,28,20,94,80,56,29.98,29.58,11,2,11,0.24
2012-3-7,51,45,32,47,40,29,96,82,69,29.62,29.40,17,2,17,0.06
2012-3-8,34,28,22,29,20,13,91,72,43,30.04,29.62,24,4,24,0.00
2012-3-9,28,22,14,14,9,4,84,58,38,30.43,30.05,21,3,21,0.00
2012-3-10,56,41,24,31,23,8,65,49,34,30.28,29.83,19,3,19,0.00
2012-3-11,63,51,41,34,30,28,62,46,31,29.94,29.80,12,2,12,0.00
2012-3-12,54,46,43,48,43,30,98,89,47,29.80,29.47,11,2,11,0.38
2012-3-13,56,44,31,43,28,15,96,59,21,29.89,29.57,14,3,14,0.00
2012-3-14,71,50,30,56,41,24,94,72,53,29.87,29.66,13,1,13,0.00
2012-3-15,66,49,37,42,36,29,97,67,30,29.92,29.77,6,0,7,0.00
2012-3-16,70,51,30,53,42,28,92,71,50,29.95,29.81,9,2,9,0.00
2012-3-17,77,65,52,62,57,48,94,76,52,29.81,29.70,19,2,19,0.00
2012-3-18,78,66,54,60,56,52,96,72,45,29.76,29.67,18,2,18,0.00
2012-3-19,77,66,54,61,57,53,97,76,51,29.91,29.69,15,3,15,0.00
2012-3-20,77,65,53,59,57,51,95,77,50,29.99,29.84,15,2,15,0.00
2012-3-21,74,64,50,57,54,48,96,69,54,30.12,29.98,15,2,19,0.00
2012-3-22,64,57,53,56,54,51,97,90,76,30.20,30.11,6,1,7,0.05
2012-3-23,60,55,51,58,54,50,98,96,93,30.11,29.94,4,0,4,0.05
2012-3-24,63,55,50,56,53,48,99,92,78,29.96,29.88,7,0,7,0.00
2012-3-25,55,44,28,52,34,16,98,70,23,30.31,29.94,10,2,11,0.00
2012-3-26,47,34,21,23,17,12,85,54,26,30.46,30.21,10,2,10,0.00
2012-3-27,66,47,34,52,35,18,69,62,47,30.21,29.53,25,5,25,0.00
2012-3-28,52,42,37,41,33,30,78,71,60,30.10,29.61,23,4,23,0.00
2012-3-29,47,38,29,30,28,25,91,68,47,30.20,29.97,9,2,9,0.00
2012-3-30,37,34,30,34,31,25,96,90,71,29.99,29.87,7,2,7,0.16
2012-3-31,39,36,32,37,34,31,97,93,88,30.01,29.79,8,2,9,0.02
2012-4-1,56,45,38,47,41,37,97,87,63,29.87,29.76,10,1,10,0.01
2012-4-2,57,46,36,40,37,34,96,75,46,29.99,29.87,12,3,12,0.09
2012-4-3,59,46,32,43,36,24,97,73,31,30.06,29.82,11,1,11,0.26
2012-4-4,60,42,25,32,26,20,97,59,21,30.12,29.99,10,1,10,0.00
2012-4-5,53,38,25,26,23,19,91,58,30,30.27,30.10,9,1,10,0.00
2012-4-6,59,40,21,29,23,18,90,55,24,30.38,30.21,11,1,13,0.00
2012-4-7,63,46,27,45,32,25,94,64,27,30.25,29.99,17,2,17,0.05
2012-4-8,53,44,34,38,27,20,91,55,29,30.10,29.97,28,4,28,0.00
2012-4-9,40,35,30,26,21,16,84,59,45,30.07,29.92,15,3,16,0.00
2012-4-10,38,31,26,23,19,15,71,61,45,30.22,30.03,16,3,16,0.00
2012-4-11,51,36,27,31,26,20,87,68,43,30.37,30.22,8,1,10,0.00
2012-4-12,61,43,23,35,27,22,96,61,27,30.25,30.13,7,1,9,0.00
2012-4-13,58,47,32,40,31,26,81,56,33,30.19,29.85,15,3,15,0.00
2012-4-14,72,58,45,50,45,40,95,66,36,29.87,29.69,16,2,16,0.04
2012-4-15,66,56,47,60,52,43,95,87,62,29.69,29.28,13,2,13,0.08
2012-4-16,66,39,27,58,35,22,94,84,66,30.19,29.23,20,3,23,0.18
2012-4-17,49,37,27,34,27,22,85,68,46,30.39,30.19,10,1,11,0.00
2012-4-18,57,45,37,48,40,31,98,84,62,30.23,29.77,22,4,22,0.61
2012-4-19,46,39,30,35,32,29,95,78,61,30.08,29.95,11,1,11,0.00
2012-4-20,53,41,29,31,27,23,88,62,34,30.10,29.93,17,2,18,0.00
2012-4-21,56,40,23,34,25,21,93,59,29,30.12,30.00,8,1,8,0.00
2012-4-22,57,43,30,34,27,21,85,55,27,30.21,30.09,12,1,12,0.00
2012-4-23,58,43,27,32,23,13,91,50,19,30.18,29.85,11,1,11,0.00
2012-4-24,64,47,27,34,28,23,91,53,24,29.85,29.67,16,1,16,0.00
2012-4-25,48,44,40,42,35,26,96,74,48,29.76,29.68,5,1,5,0.17
2012-4-26,47,40,27,42,30,21,97,71,38,30.20,29.74,14,2,14,0.00
2012-4-27,57,40,21,29,20,12,95,53,19,30.31,30.18,8,1,8,0.00
2012-4-28,54,43,32,32,25,20,80,51,31,30.29,30.18,8,2,8,0.00
2012-4-29,63,46,25,37,25,19,94,52,19,30.35,30.12,8,1,8,0.04
2012-4-30,48,43,37,44,40,35,97,91,81,30.14,29.89,6,0,6,0.22
2012-5-1,69,54,34,51,45,33,99,76,48,29.95,29.74,14,2,14,0.00
2012-5-2,76,61,52,59,54,48,98,79,41,29.83,29.59,13,2,13,0.38
2012-5-3,76,64,52,64,58,49,98,82,50,29.91,29.74,17,2,17,0.43
2012-5-4,70,56,46,50,46,41,97,72,43,30.08,29.91,12,2,12,0.00
2012-5-5,61,52,42,52,46,39,96,80,63,30.10,30.00,7,1,7,0.15
2012-5-6,51,46,42,48,44,41,98,93,74,30.09,29.97,8,1,8,1.04
2012-5-7,68,54,44,53,47,43,99,78,48,29.99,29.79,10,1,10,0.01
2012-5-8,64,50,43,51,44,39,96,79,43,29.90,29.75,18,1,18,0.32
2012-5-9,64,50,36,44,36,23,94,66,25,29.98,29.89,12,1,12,0.00
2012-5-10,72,54,30,40,34,29,97,55,26,30.00,29.90,11,1,11,0.00
2012-5-11,75,58,42,56,46,36,91,66,47,30.12,29.89,13,2,13,0.00
2012-5-12,68,56,42,47,36,24,87,52,20,30.29,30.12,9,1,10,0.00
2012-5-13,73,56,34,41,35,28,96,53,21,30.26,30.03,10,1,12,0.00
2012-5-14,81,65,46,46,42,37,73,46,24,30.03,29.81,15,2,15,0.00
2012-5-15,73,63,40,48,42,33,86,48,26,29.98,29.68,18,2,18,0.00
2012-5-16,65,50,34,39,32,24,97,58,23,30.11,29.98,12,1,12,0.00
2012-5-17,68,55,39,50,41,33,81,62,41,30.14,29.91,9,1,9,0.00
2012-5-18,85,68,50,55,48,41,75,50,32,29.93,29.82,14,2,14,0.00
2012-5-19,88,72,52,58,53,46,84,55,32,29.91,29.81,17,2,17,0.00
2012-5-20,84,66,47,66,57,44,95,75,48,30.04,29.69,16,2,16,0.06
2012-5-21,69,55,41,46,40,34,97,64,33,30.20,30.03,13,1,13,0.00
2012-5-22,73,56,35,45,39,33,96,60,31,30.16,29.88,8,1,8,0.00
2012-5-23,74,63,51,53,47,40,70,57,39,29.87,29.59,10,2,10,0.00
2012-5-24,84,69,57,64,55,46,96,63,42,29.62,29.31,16,3,16,0.84
2012-5-25,70,60,49,58,48,42,96,68,40,30.12,29.48,19,3,19,0.00
2012-5-26,70,57,44,57,51,43,97,83,50,30.24,29.97,10,0,10,0.14
2012-5-27,80,67,55,70,63,54,99,88,67,30.09,29.70,8,1,8,1.11
2012-5-28,80,72,57,69,62,55,94,73,52,29.70,29.55,16,2,16,0.09
2012-5-29,61,56,48,55,48,43,95,77,54,29.83,29.64,17,3,17,0.05
2012-5-30,54,47,37,47,41,36,96,80,59,30.06,29.82,9,1,10,0.01
2012-5-31,65,49,36,42,37,33,97,70,33,30.13,30.01,5,0,7,0.00
2012-6-1,70,52,32,46,39,31,98,67,29,30.03,29.75,7,0,7,0.00
2012-6-2,73,58,39,47,41,37,96,59,28,29.75,29.63,19,2,19,0.00
2012-6-3,78,64,47,53,47,42,89,59,30,29.86,29.71,13,1,13,0.00
2012-6-4,77,64,55,59,54,50,94,73,47,29.97,29.85,5,0,5,0.00
2012-6-5,76,61,51,56,53,50,97,78,48,30.09,29.97,5,0,5,0.00
2012-6-6,79,61,42,56,49,42,99,70,32,30.15,30.08,2,0,6,0.00
2012-6-7,80,64,46,61,54,45,98,74,42,30.15,30.02,3,1,8,0.00
2012-6-8,79,68,58,68,61,56,97,80,59,30.02,29.77,5,1,14,0.25
2012-6-9,88,76,64,64,60,57,79,59,38,29.78,29.71,4,2,11,0.00
2012-6-10,87,75,58,64,60,55,90,61,41,29.83,29.71,5,2,13,0.00
2012-6-11,83,72,58,67,59,44,89,65,35,29.80,29.66,8,3,22,0.00
2012-6-12,65,56,44,44,42,38,90,61,38,30.16,29.80,6,3,17,0.00
2012-6-13,75,57,39,53,45,37,96,69,36,30.22,30.06,7,1,11,0.00
2012-6-14,66,57,52,59,51,42,97,81,55,30.18,29.81,20,2,20,0.59
2012-6-15,84,70,57,69,63,56,97,79,56,30.03,29.95,7,0,7,0.00
2012-6-16,79,67,60,67,64,58,98,90,59,30.03,29.73,11,1,11,0.20
2012-6-17,78,66,55,59,56,52,98,72,42,29.82,29.66,14,2,14,0.01
2012-6-18,80,69,58,74,66,56,99,91,69,29.69,29.50,8,1,8,0.98
2012-6-19,86,72,60,74,67,59,99,86,60,29.90,29.69,8,1,8,0.40
2012-6-20,87,76,63,74,69,62,98,80,61,29.80,29.64,27,2,27,0.85
2012-6-21,73,66,60,63,58,52,98,78,50,29.95,29.74,18,2,18,0.04
2012-6-22,75,64,51,59,55,50,98,76,46,30.01,29.95,9,1,9,0.00
2012-6-23,71,63,53,64,59,52,97,87,66,30.04,29.97,8,0,8,0.05
2012-6-24,77,66,48,66,58,46,99,78,47,30.13,29.96,8,1,9,0.22
2012-6-25,77,61,42,56,48,41,98,68,37,30.22,30.08,7,0,7,0.00
2012-6-26,81,65,47,57,52,46,98,68,38,30.10,29.89,8,1,9,0.00
2012-6-27,89,74,58,70,62,54,93,67,48,29.89,29.67,12,1,12,0.00
2012-6-28,83,74,65,72,63,56,99,72,41,29.83,29.70,11,2,11,0.00
2012-6-29,85,73,58,63,59,55,91,63,42,29.85,29.73,12,2,12,0.00
2012-6-30,83,71,57,61,58,53,98,68,37,29.90,29.75,12,1,12,0.00
2012-7-1,89,72,53,67,60,52,97,70,41,29.98,29.90,7,0,8,0.00
2012-7-2,92,76,61,77,69,59,97,79,55,29.95,29.76,10,1,10,0.17
2012-7-3,91,76,64,74,69,64,99,80,50,29.88,29.73,13,1,13,1.86
2012-7-4,94,78,66,80,72,65,99,83,61,29.87,29.75,11,0,11,0.06
2012-7-5,92,79,65,75,69,63,97,75,43,30.01,29.78,8,0,8,0.00
2012-7-6,89,73,57,76,66,56,98,80,49,30.07,29.92,12,0,12,1.02
2012-7-7,82,70,61,66,62,59,98,79,47,30.19,30.03,6,0,6,0.62
2012-7-8,84,70,56,66,60,55,99,75,49,30.21,30.12,10,1,10,0.00
2012-7-9,82,68,54,63,57,52,98,73,40,30.21,30.15,11,1,11,0.00
2012-7-10,83,67,52,61,56,51,98,74,40,30.27,30.15,6,0,6,0.00
2012-7-11,87,70,53,64,58,52,97,70,38,30.21,30.11,7,0,7,0.00
2012-7-12,88,71,55,65,59,54,95,70,37,30.14,30.04,6,0,6,0.00
2012-7-13,90,71,56,69,62,54,96,75,45,30.08,29.98,10,1,10,0.00
2012-7-14,82,71,60,71,66,59,98,84,63,30.02,29.95,10,1,10,0.00
2012-7-15,89,75,61,71,65,60,99,75,44,30.06,29.99,9,1,9,0.00
2012-7-16,93,78,64,72,67,63,97,73,42,30.01,29.70,13,1,16,0.00
2012-7-17,81,74,64,72,68,62,94,82,69,29.95,29.72,6,0,6,0.04
2012-7-18,73,66,63,64,62,58,98,87,67,30.05,29.89,4,0,5,0.20
2012-7-19,80,67,57,64,60,57,98,81,50,30.09,29.93,7,0,7,0.11
2012-7-20,82,68,52,67,61,52,99,78,57,30.15,30.00,10,1,10,0.00
2012-7-21,86,74,61,71,65,58,92,75,47,30.01,29.93,9,1,9,0.00
2012-7-22,90,74,56,74,65,54,98,77,53,30.02,29.90,8,1,8,0.00
2012-7-23,89,77,66,71,66,63,97,71,44,29.96,29.87,17,2,17,0.00
2012-7-24,86,72,58,64,61,56,98,72,42,30.06,29.95,6,0,6,0.00
2012-7-25,82,69,60,73,66,59,98,93,71,29.95,29.60,13,0,13,0.73
2012-7-26,80,70,62,70,66,61,99,90,66,29.81,29.63,9,1,9,0.94
2012-7-27,76,65,56,66,61,54,99,88,60,30.12,29.81,9,0,9,0.21
2012-7-28,83,61,48,60,53,45,99,79,28,30.21,30.10,5,0,5,0.00
2012-7-29,83,69,55,68,62,54,98,80,52,30.12,29.97,7,0,7,0.00
2012-7-30,85,72,63,71,66,62,98,81,56,30.00,29.83,15,1,15,0.01
2012-7-31,81,68,56,62,59,54,98,77,46,30.03,29.91,7,0,12,0.00
2012-8-1,82,66,52,69,60,51,98,84,48,30.01,29.81,9,0,9,0.01
2012-8-2,86,74,63,70,65,60,95,75,46,29.92,29.81,9,1,9,0.00
2012-8-3,84,70,60,69,64,59,98,83,45,29.99,29.92,4,0,4,0.00
2012-8-4,75,68,63,68,65,58,99,89,76,29.96,29.82,14,1,14,0.43
2012-8-5,72,63,54,58,53,47,93,71,47,30.16,29.85,15,2,15,0.00
2012-8-6,81,66,50,60,56,48,98,73,44,30.17,29.97,13,1,13,0.00
2012-8-7,82,68,56,64,58,54,98,74,42,30.06,29.94,7,0,7,0.02
2012-8-8,64,58,50,60,56,49,98,93,82,30.12,30.06,0,0,0,0.08
2012-8-9,67,59,55,62,57,55,99,95,78,30.12,30.02,5,0,5,0.49
2012-8-10,73,61,49,56,53,47,98,77,47,30.16,30.09,10,1,12,0.00
2012-8-11,75,60,44,57,51,43,99,77,47,30.13,30.03,8,0,8,0.00
2012-8-12,72,59,45,61,52,44,98,80,49,30.07,30.00,5,0,5,0.00
2012-8-13,79,66,56,64,59,54,96,80,46,30.02,29.94,11,1,11,0.00
2012-8-14,76,62,48,59,53,47,99,76,41,30.00,29.94,7,0,7,0.00
2012-8-15,80,65,47,63,57,46,99,78,51,29.98,29.81,10,1,10,0.00
2012-8-16,67,63,56,62,58,53,96,82,67,29.95,29.70,13,2,19,0.01
2012-8-17,70,57,47,53,48,42,96,74,38,30.08,29.94,10,2,10,0.00
2012-8-18,73,56,42,58,50,41,98,83,46,30.08,29.97,10,1,10,0.19
2012-8-19,73,57,45,58,50,42,99,79,39,30.06,29.98,8,0,8,0.00
2012-8-20,72,56,39,55,47,38,98,75,43,30.05,29.99,10,1,12,0.00
2012-8-21,78,62,46,57,50,45,98,71,38,30.10,30.04,9,1,9,0.00
2012-8-22,84,65,48,58,53,47,94,69,36,30.06,29.99,10,1,10,0.00
2012-8-23,74,66,55,69,62,53,98,88,69,30.04,29.93,6,0,7,0.03
2012-8-24,86,74,66,70,64,60,93,72,58,29.94,29.88,16,1,16,0.00
2012-8-25,88,73,58,66,60,55,95,68,34,30.00,29.92,10,1,10,0.00
2012-8-26,80,68,59,69,64,57,98,87,58,30.04,29.93,8,0,8,0.11
2012-8-27,80,65,51,60,56,50,99,76,45,30.15,30.01,9,1,10,0.00
2012-8-28,81,64,48,60,55,47,99,76,43,30.21,30.08,7,0,7,0.00
2012-8-29,87,68,50,68,60,49,98,79,49,30.11,29.92,8,1,9,0.00
2012-8-30,91,78,68,68,65,62,89,67,40,29.92,29.74,17,2,17,0.00
2012-8-31,84,69,53,65,56,47,95,67,31,30.18,29.86,6,0,6,0.00
2012-9-1,83,63,44,56,51,43,98,70,34,30.25,30.12,6,0,6,0.00
2012-9-2,84,65,46,63,55,45,98,74,39,30.14,29.97,8,1,8,0.00
2012-9-3,84,70,59,74,64,54,97,82,61,29.98,29.85,8,1,9,0.02
2012-9-4,86,71,58,71,66,58,99,85,55,29.91,29.77,7,0,8,0.00
2012-9-5,73,64,55,65,58,53,96,83,55,29.87,29.77,8,0,8,0.06
2012-9-6,76,62,46,56,51,46,98,72,38,29.97,29.87,11,1,12,0.00
2012-9-7,65,56,51,57,53,48,98,89,60,29.96,29.87,13,1,13,0.27
2012-9-8,64,54,49,56,51,46,98,89,62,29.97,29.81,13,1,13,0.27
2012-9-9,68,55,44,54,49,43,99,82,46,30.18,29.97,9,1,9,0.05
2012-9-10,76,58,39,54,48,38,99,74,42,30.19,29.99,14,1,14,0.00
2012-9-11,85,70,55,58,54,50,84,60,37,30.01,29.84,13,2,13,0.00
2012-9-12,71,61,50,59,50,42,95,71,47,30.23,29.89,14,1,14,0.04
2012-9-13,65,54,40,50,43,33,96,73,32,30.35,30.22,12,1,12,0.01
2012-9-14,67,52,40,45,41,38,96,70,39,30.38,30.33,6,1,11,0.00
2012-9-15,77,56,35,52,44,33,98,70,37,30.38,30.06,10,1,10,0.00
2012-9-16,78,66,55,58,51,46,77,61,36,30.06,29.87,19,2,19,0.00
2012-9-17,64,52,43,57,49,41,97,91,70,29.96,29.83,7,1,8,0.40
2012-9-18,50,40,30,41,36,29,98,86,51,30.05,29.94,12,1,12,0.02
2012-9-19,56,43,29,52,40,28,98,89,65,30.03,29.63,27,1,30,0.24
2012-9-20,54,47,39,48,44,38,98,92,72,29.84,29.70,14,2,14,0.17
2012-9-21,55,44,34,44,40,33,98,87,54,29.82,29.73,11,1,11,0.11
2012-9-22,51,42,34,41,36,29,98,80,47,30.13,29.73,16,1,16,0.01
2012-9-23,53,42,34,37,35,31,92,76,50,30.20,30.11,13,1,13,0.00
2012-9-24,69,50,34,42,36,31,88,62,34,30.11,29.65,16,2,16,0.00
2012-9-25,61,47,33,44,39,32,98,77,47,29.95,29.79,8,0,8,0.00
2012-9-26,55,41,28,41,35,27,98,81,47,30.25,29.95,10,0,10,0.00
2012-9-27,63,43,27,45,35,26,98,78,39,30.33,30.19,7,0,7,0.00
2012-9-28,69,47,29,44,37,28,98,73,33,30.22,30.10,8,0,8,0.00
2012-9-29,72,52,35,47,39,33,98,68,26,30.10,30.02,8,0,8,0.00
2012-9-30,69,46,32,47,38,30,98,78,34,30.06,29.93,5,0,5,0.00
2012-10-1,70,53,36,52,44,34,97,76,42,29.93,29.79,8,0,9,0.00
2012-10-2,68,50,35,48,38,30,98,71,27,29.96,29.87,6,0,6,0.00
2012-10-3,74,53,34,54,44,33,99,76,38,29.98,29.90,5,0,5,0.00
2012-10-4,62,49,40,50,40,29,98,73,47,29.95,29.77,19,3,19,0.00
2012-10-5,40,38,35,30,28,26,82,67,60,29.96,29.91,21,5,22,0.00
2012-10-6,41,36,32,32,29,25,92,76,55,30.19,29.95,14,2,14,0.00
2012-10-7,47,36,25,28,23,17,92,60,32,30.17,29.97,14,1,14,0.00
2012-10-8,54,45,30,40,29,19,70,55,48,29.97,29.66,19,2,19,0.00
2012-10-9,53,42,36,45,38,33,96,87,55,29.78,29.65,16,2,16,0.28
2012-10-10,42,35,29,33,26,21,90,72,45,30.02,29.78,21,3,21,0.00
2012-10-11,44,37,26,34,28,23,90,71,48,30.32,29.85,15,2,20,0.00
2012-10-12,48,34,20,30,23,19,96,68,33,30.47,30.21,9,1,9,0.00
2012-10-13,45,41,31,45,39,21,98,93,63,30.21,29.73,8,1,8,0.19
2012-10-14,45,42,39,44,42,38,98,97,96,29.78,29.60,13,1,13,0.31
2012-10-15,53,41,34,38,35,32,96,80,50,29.92,29.75,9,1,9,0.00
2012-10-16,58,48,40,49,43,35,95,82,63,29.86,29.46,13,1,13,0.02
2012-10-17,69,52,42,54,48,41,98,88,53,29.45,29.21,11,1,11,0.25
2012-10-18,49,46,41,48,44,40,98,96,86,29.41,29.08,9,1,9,0.45
2012-10-19,48,43,39,44,41,38,98,93,77,29.65,29.41,8,0,8,0.06
2012-10-20,50,43,31,44,40,30,97,90,72,29.85,29.64,5,0,5,0.00
2012-10-21,58,42,28,54,39,27,99,90,68,29.98,29.85,7,1,7,0.00
2012-10-22,63,52,40,49,45,39,99,80,59,30.03,29.94,11,1,11,0.00
2012-10-23,57,52,48,57,50,45,99,95,85,29.97,29.81,9,2,9,0.01
2012-10-24,66,61,57,64,60,57,99,98,94,29.84,29.63,11,1,11,0.03
2012-10-25,66,51,33,64,50,30,100,97,86,29.94,29.44,22,2,22,1.96
2012-10-26,37,33,30,30,26,22,91,76,62,30.33,29.94,18,4,18,0.00
2012-10-27,40,32,24,24,21,17,93,66,42,30.37,30.30,13,1,13,0.00
2012-10-28,44,29,18,26,21,17,97,75,39,30.43,30.36,7,0,7,0.00
2012-10-29,46,31,18,29,23,16,96,76,45,30.43,30.26,6,0,6,0.00
2012-10-30,40,33,30,28,25,21,91,73,48,30.26,29.95,17,2,17,0.00
2012-10-31,42,33,28,30,24,17,89,71,46,29.95,29.85,11,2,11,0.00
2012-11-1,39,35,30,34,28,19,94,77,55,29.97,29.82,11,1,12,0.01
2012-11-2,39,31,22,27,23,20,91,74,54,30.22,29.97,9,1,9,0.00
2012-11-3,38,28,21,26,23,19,93,83,61,30.29,30.22,5,0,5,0.00
2012-11-4,36,23,14,26,20,12,96,86,64,30.32,30.25,5,0,5,0.00
2012-11-5,32,23,13,26,20,11,95,87,72,30.31,30.10,5,0,5,0.00
2012-11-6,34,32,26,32,30,23,97,93,87,30.10,29.82,9,1,9,0.02
2012-11-7,38,34,32,35,33,31,98,94,88,30.12,29.94,5,0,5,0.04
2012-11-8,49,38,31,38,34,30,95,85,63,30.13,29.95,12,1,12,0.00
2012-11-9,42,39,35,38,36,31,93,88,81,30.13,30.05,8,1,8,0.00
2012-11-10,53,41,34,52,40,31,99,96,86,30.12,29.67,13,2,13,0.22
2012-11-11,58,48,28,54,46,26,98,92,78,29.76,29.56,13,3,14,0.81
2012-11-12,28,22,19,26,18,13,93,83,70,30.23,29.75,15,4,17,0.00
2012-11-13,35,25,19,22,19,15,87,76,56,30.42,30.23,11,1,11,0.00
2012-11-14,40,33,28,32,26,22,92,77,64,30.42,30.24,10,0,10,0.00
2012-11-15,50,37,25,35,30,21,90,77,54,30.37,30.16,7,0,7,0.00
2012-11-16,41,29,18,30,23,16,95,79,49,30.50,30.37,5,0,5,0.00
2012-11-17,49,39,32,38,35,30,95,85,65,30.43,30.33,5,1,8,0.00
2012-11-18,53,43,30,35,33,28,96,69,50,30.33,30.18,9,2,9,0.00
2012-11-19,56,45,39,40,36,32,86,72,56,30.18,30.01,8,1,8,0.00
2012-11-20,53,40,28,42,35,27,97,86,63,30.09,30.01,6,0,6,0.00
2012-11-21,52,40,25,44,36,24,98,85,66,30.09,29.81,10,1,11,0.00
2012-11-22,60,51,29,44,41,25,93,70,56,29.81,29.49,26,3,26,0.00
2012-11-23,29,24,20,25,20,15,92,84,76,30.18,29.58,22,5,22,0.00
2012-11-24,25,21,18,19,15,13,92,77,64,30.21,29.83,12,1,12,0.00
2012-11-25,25,23,21,22,20,16,92,87,79,30.03,29.76,14,2,14,0.00
2012-11-26,21,16,6,18,11,3,89,82,69,30.34,30.03,11,2,11,0.00
2012-11-27,30,19,6,22,13,4,90,78,54,30.33,30.10,13,1,13,0.00
2012-11-28,26,23,19,21,17,13,88,77,62,30.28,30.13,14,2,14,0.00
2012-11-29,34,24,12,27,20,10,95,88,75,30.24,30.11,10,1,10,0.01
2012-11-30,29,25,22,29,23,16,97,92,77,30.26,30.13,9,2,9,0.00
2012-12-1,39,35,29,39,34,29,98,98,96,30.13,29.70,8,2,8,0.03
2012-12-2,39,35,33,39,35,32,99,97,95,29.93,29.72,7,1,7,0.00
2012-12-3,55,44,34,54,43,33,99,96,84,29.89,29.49,17,3,17,0.01
2012-12-4,40,30,20,35,22,11,84,71,49,30.25,29.68,18,4,18,0.00
2012-12-5,29,24,18,23,17,14,89,77,64,30.37,30.05,11,2,11,0.00
2012-12-6,37,33,28,35,30,23,96,89,79,30.04,29.69,12,2,15,0.08
2012-12-7,30,26,24,27,22,21,92,86,76,29.97,29.81,9,1,9,0.00
2012-12-8,30,22,15,23,19,13,96,88,70,30.11,29.95,4,0,4,0.00
2012-12-9,27,23,16,25,20,15,95,90,86,30.15,29.74,10,1,10,0.00
2012-12-10,27,24,21,23,21,19,95,90,79,29.80,29.72,4,0,4,0.00
2012-12-11,21,17,14,20,14,11,93,88,82,29.96,29.73,11,2,11,0.00
2012-12-12,36,23,10,27,19,8,92,82,68,30.10,29.94,13,2,13,0.00
2012-12-13,37,32,24,26,23,21,92,69,55,30.05,29.91,12,1,12,0.02
2012-12-14,33,29,25,28,26,23,94,90,83,30.14,29.97,12,2,12,0.00
2012-12-15,35,33,30,34,32,28,98,96,93,29.97,29.44,11,3,11,0.19
2012-12-16,34,33,29,34,32,28,98,98,96,29.57,29.42,9,1,10,0.04
2012-12-17,29,24,23,28,22,20,96,91,88,29.65,29.57,10,1,11,0.00
2012-12-18,27,24,22,23,21,19,93,89,83,29.75,29.62,4,0,4,0.00
2012-12-19,28,24,17,26,22,16,96,94,90,29.99,29.75,6,0,6,0.00
2012-12-20,30,27,25,29,26,24,96,94,89,29.92,29.49,14,2,16,0.00
2012-12-21,27,22,15,24,18,12,91,86,80,30.09,29.61,15,2,15,0.00
2012-12-22,30,17,4,18,10,2,92,76,46,30.09,29.88,10,1,10,0.00
2012-12-23,21,17,11,18,12,8,91,83,68,30.01,29.90,11,1,11,0.00
2012-12-24,21,15,10,17,12,6,91,86,78,30.14,29.94,7,0,7,0.00
2012-12-25,19,10,-3,12,6,-6,91,84,72,30.39,30.14,5,0,7,0.00
2012-12-26,22,10,-5,16,7,-8,92,86,75,30.36,30.21,6,0,6,0.00
2012-12-27,24,18,13,16,13,10,91,81,67,30.23,30.11,7,0,7,0.00
2012-12-28,22,19,13,19,16,10,93,89,80,30.12,29.90,7,0,7,0.00
2012-12-29,23,19,15,19,16,11,93,89,83,30.03,29.89,9,1,9,0.00
2012-12-30,21,15,11,16,11,8,88,83,74,30.13,29.82,9,2,9,0.00
2012-12-31,21,13,1,18,8,-2,89,81,67,30.10,29.81,13,2,13,0.00
2013-1-1,14,7,-1,9,1,-4,90,78,58,30.17,30.01,10,2,11,0.00